Blue Scorpion — IO3479 — position and weather

sailwx.info

Track history (hours):
 
Tides and Currents Weather Stations Pressure Air Temp Water Temp Dewpoint Dewpoint Depression Visibility Wind Speed Wind Dir Waves Ship Positions

Blue Scorpion

Last reported at 2014-Jul-25 13:32 UTC. Time now 2014-Jul-25 13:45 UTC.
Position N 42°58' E 006°24'.

Length 53 m; draft 3.1 m.

Type: Pleasure craft. MMSI: 247064680.

Date/timePositionNaut miles runAvg speedWind from/ knotsBaromVisibWave heightAir tempDewpointWater temp
2014-Jul-25 13:32N 42°58' E 006°24'1615.9
2014-Jul-25 12:33N 43°09' E 006°39'5 4.8
2014-Jul-25 11:31N 43°13' E 006°40'0 0.0
2014-Jul-25 09:31N 43°13' E 006°40'0 0.0
2014-Jul-25 08:07N 43°13' E 006°40'0 0.0
2014-Jul-25 07:31N 43°13' E 006°40'0 0.0
2014-Jul-25 06:25N 43°13' E 006°40'0 0.0
2014-Jul-25 05:19N 43°13' E 006°40'0 0.0
2014-Jul-25 04:31N 43°13' E 006°40'0 0.0
2014-Jul-25 03:28N 43°13' E 006°40'0 0.0
2014-Jul-25 02:16N 43°13' E 006°40'0 0.0
2014-Jul-25 01:25N 43°13' E 006°40'0 0.0
2014-Jul-24 23:28N 43°13' E 006°40'0 0.0
2014-Jul-24 22:31N 43°13' E 006°40'0 0.0
2014-Jul-24 21:31N 43°13' E 006°40'0 0.0
2014-Jul-24 20:31N 43°13' E 006°40'0 0.0
2014-Jul-24 19:31N 43°13' E 006°40'0 0.0
2014-Jul-24 18:28N 43°13' E 006°40'0 0.0
2014-Jul-24 17:31N 43°13' E 006°40'0 0.0
2014-Jul-24 16:31N 43°13' E 006°40'0 0.0
2014-Jul-24 15:31N 43°13' E 006°40'0 0.0
2014-Jul-24 14:31N 43°13' E 006°40'4 4.2
2014-Jul-24 13:33N 43°17' E 006°41'3 2.3
2014-Jul-24 12:27N 43°16' E 006°38'0 0.0
2014-Jul-24 11:33N 43°16' E 006°38'0 0.0
2014-Jul-24 10:30N 43°16' E 006°38'0 0.0
2014-Jul-24 09:30N 43°16' E 006°38'0 0.0
2014-Jul-24 08:33N 43°16' E 006°38'0 0.0
2014-Jul-24 07:33N 43°16' E 006°38'0 0.0
2014-Jul-24 06:30N 43°16' E 006°38'0 0.0
2014-Jul-24 05:33N 43°16' E 006°38'0 0.0
2014-Jul-24 04:30N 43°16' E 006°38'0 0.0
2014-Jul-24 03:33N 43°16' E 006°38'0 0.0
2014-Jul-24 02:30N 43°16' E 006°38'0 0.0
2014-Jul-24 01:33N 43°16' E 006°38'0 0.0
2014-Jul-24 00:33N 43°16' E 006°38'0 0.0
2014-Jul-23 23:30N 43°16' E 006°38'0 0.0
2014-Jul-23 22:30N 43°16' E 006°38'0 0.0
2014-Jul-23 21:30N 43°16' E 006°38'0 0.0
2014-Jul-23 20:33N 43°16' E 006°38'0 0.0
2014-Jul-23 19:30N 43°16' E 006°38'0 0.0
2014-Jul-23 18:33N 43°16' E 006°38'0 0.0
2014-Jul-23 17:32N 43°16' E 006°38'3 3.0
2014-Jul-23 16:33N 43°17' E 006°42'4 4.1
2014-Jul-23 15:32N 43°13' E 006°40'0 0.0
2014-Jul-23 14:32N 43°13' E 006°40'0 0.0
2014-Jul-23 13:29N 43°13' E 006°40'0 0.0
2014-Jul-23 12:32N 43°13' E 006°40'1 1.0
2014-Jul-23 11:33N 43°14' E 006°41'3 3.0
2014-Jul-23 10:29N 43°16' E 006°38'0 0.0
2014-Jul-23 09:32N 43°16' E 006°38'0 0.0
2014-Jul-23 08:32N 43°16' E 006°38'0 0.0
2014-Jul-23 07:32N 43°16' E 006°38'0 0.0
2014-Jul-23 06:31N 43°16' E 006°38'0 0.0
2014-Jul-23 05:31N 43°16' E 006°38'0 0.0
2014-Jul-23 04:25N 43°16' E 006°38'0 0.0
2014-Jul-23 03:31N 43°16' E 006°38'0 0.0
2014-Jul-23 02:16N 43°16' E 006°38'0 0.0
2014-Jul-23 01:31N 43°16' E 006°38'0 0.0
2014-Jul-23 00:31N 43°16' E 006°38'0 0.0
2014-Jul-22 23:31N 43°16' E 006°38'0 0.0
2014-Jul-22 22:31N 43°16' E 006°38'0 0.0
2014-Jul-22 21:31N 43°16' E 006°38'0 0.0
2014-Jul-22 20:28N 43°16' E 006°38'0 0.0
2014-Jul-22 19:31N 43°16' E 006°38'0 0.0
2014-Jul-22 18:25N 43°16' E 006°38'0 0.0
2014-Jul-22 17:31N 43°16' E 006°38'0 0.0
2014-Jul-22 16:31N 43°16' E 006°38'0 0.0
2014-Jul-22 15:31N 43°16' E 006°38'0 0.0
2014-Jul-22 14:31N 43°16' E 006°38'0 0.0
2014-Jul-22 13:31N 43°16' E 006°38'0 0.0
2014-Jul-22 12:31N 43°16' E 006°38'0 0.0
2014-Jul-22 11:31N 43°16' E 006°38'0 0.0
2014-Jul-22 10:31N 43°16' E 006°38'0 0.0
2014-Jul-22 09:28N 43°16' E 006°38'0 0.0
2014-Jul-22 08:31N 43°16' E 006°38'0 0.0
2014-Jul-22 07:31N 43°16' E 006°38'0 0.0
2014-Jul-22 06:31N 43°16' E 006°38'0 0.0
2014-Jul-22 05:25N 43°16' E 006°38'0 0.0
2014-Jul-22 04:31N 43°16' E 006°38'0 0.0
2014-Jul-22 03:31N 43°16' E 006°38'0 0.0
2014-Jul-22 02:31N 43°16' E 006°38'0 0.0
2014-Jul-22 01:25N 43°16' E 006°38'0 0.0
2014-Jul-22 00:31N 43°16' E 006°38'0 0.0
2014-Jul-21 23:31N 43°16' E 006°38'0 0.0
2014-Jul-21 22:31N 43°16' E 006°38'0 0.0
2014-Jul-21 21:31N 43°16' E 006°38'0 0.0
2014-Jul-21 20:31N 43°16' E 006°38'0 0.0
2014-Jul-21 20:13N 43°16' E 006°38'0 0.0
2014-Jul-21 19:31N 43°16' E 006°38'0 0.0
2014-Jul-21 18:22N 43°16' E 006°38'0 0.0
2014-Jul-21 17:30N 43°16' E 006°38'0 0.0
2014-Jul-21 16:18N 43°16' E 006°38'0 0.4
2014-Jul-21 15:33N 43°16' E 006°38'0 0.0
2014-Jul-21 14:31N 43°16' E 006°38'0 0.0
2014-Jul-21 13:31N 43°16' E 006°38'0 0.0
2014-Jul-21 12:31N 43°16' E 006°38'0 0.0
2014-Jul-21 11:31N 43°16' E 006°38'0 0.0
2014-Jul-21 10:22N 43°16' E 006°38'0 0.1
2014-Jul-21 09:31N 43°16' E 006°38'0 0.0
2014-Jul-21 08:28N 43°16' E 006°38'1 1.1
2014-Jul-21 07:33N 43°16' E 006°36'0 0.0
2014-Jul-21 06:18N 43°16' E 006°36'0 0.0
2014-Jul-21 05:33N 43°16' E 006°36'0 0.0
2014-Jul-21 04:33N 43°16' E 006°36'0 0.0
2014-Jul-21 03:17N 43°16' E 006°36'0 0.0
2014-Jul-21 02:29N 43°16' E 006°36'0 0.0
2014-Jul-21 01:32N 43°16' E 006°36'0 0.0
2014-Jul-21 00:26N 43°16' E 006°36'0 0.0
2014-Jul-20 23:23N 43°16' E 006°36'0 0.0
2014-Jul-20 22:23N 43°16' E 006°36'0 0.0
2014-Jul-20 21:32N 43°16' E 006°36'0 0.0
2014-Jul-20 20:32N 43°16' E 006°36'0 0.0
2014-Jul-20 19:32N 43°16' E 006°36'0 0.0
2014-Jul-20 18:32N 43°16' E 006°36'0 0.0
2014-Jul-20 17:32N 43°16' E 006°36'0 0.0
2014-Jul-20 16:32N 43°16' E 006°36'0 0.0
2014-Jul-20 15:29N 43°16' E 006°36'1 0.8
2014-Jul-20 14:22N 43°16' E 006°37'0 0.4
2014-Jul-20 13:33N 43°16' E 006°38'0 0.3
2014-Jul-20 12:32N 43°16' E 006°37'0 0.0
2014-Jul-20 11:23N 43°16' E 006°37'0 0.0
2014-Jul-20 10:29N 43°16' E 006°37'0 0.0
2014-Jul-20 09:29N 43°16' E 006°37'0 0.0
2014-Jul-20 08:29N 43°17' E 006°37'0 0.0
2014-Jul-20 07:23N 43°16' E 006°37'0 0.0
2014-Jul-20 06:29N 43°17' E 006°37'0 0.0
2014-Jul-20 05:26N 43°17' E 006°37'0 0.0
2014-Jul-20 04:29N 43°17' E 006°37'0 0.0
2014-Jul-20 03:29N 43°17' E 006°37'0 0.0
2014-Jul-20 02:29N 43°17' E 006°37'0 0.0
2014-Jul-20 01:32N 43°17' E 006°37'0 0.0
2014-Jul-20 00:29N 43°17' E 006°37'0 0.0
2014-Jul-19 23:26N 43°16' E 006°37'0 0.0
2014-Jul-19 22:32N 43°16' E 006°37'0 0.0
2014-Jul-19 21:29N 43°17' E 006°37'0 0.0
2014-Jul-19 20:29N 43°16' E 006°37'0 0.0
2014-Jul-19 19:29N 43°17' E 006°37'0 0.0
2014-Jul-19 18:29N 43°16' E 006°37'0 0.0
2014-Jul-19 17:33N 43°17' E 006°37'1312.5
2014-Jul-19 16:33N 43°22' E 006°53'1111.4
2014-Jul-19 15:33N 43°31' E 007°03'0 0.1
2014-Jul-19 14:28N 43°31' E 007°03'0 0.0
2014-Jul-19 13:31N 43°31' E 007°03'0 0.0
2014-Jul-19 12:31N 43°31' E 007°03'0 0.0
2014-Jul-19 11:32N 43°31' E 007°03'3 3.4
2014-Jul-19 10:32N 43°33' E 007°07'0 0.0
2014-Jul-19 09:23N 43°33' E 007°07'0 0.0
2014-Jul-19 08:32N 43°33' E 007°07'0 0.0
2014-Jul-19 07:32N 43°33' E 007°07'0 0.0
2014-Jul-19 06:32N 43°33' E 007°07'0 0.0
2014-Jul-19 05:32N 43°33' E 007°07'0 0.0
2014-Jul-19 04:29N 43°33' E 007°07'0 0.0
2014-Jul-19 03:32N 43°33' E 007°07'0 0.0
2014-Jul-19 02:32N 43°33' E 007°07'0 0.0
2014-Jul-19 01:32N 43°33' E 007°07'0 0.0
2014-Jul-19 00:26N 43°33' E 007°07'0 0.0
2014-Jul-18 23:26N 43°33' E 007°07'0 0.0
2014-Jul-18 22:32N 43°33' E 007°07'0 0.0
2014-Jul-18 21:32N 43°33' E 007°07'0 0.0
2014-Jul-18 20:32N 43°33' E 007°07'0 0.0
2014-Jul-18 19:32N 43°33' E 007°07'3 2.7
2014-Jul-18 18:34N 43°35' E 007°10'2 1.8
2014-Jul-18 17:31N 43°35' E 007°07'0 0.0
2014-Jul-18 16:31N 43°35' E 007°07'0 0.0
2014-Jul-18 15:25N 43°35' E 007°07'0 0.0
2014-Jul-18 14:31N 43°35' E 007°07'0 0.0
2014-Jul-18 13:31N 43°35' E 007°07'1 1.0
2014-Jul-18 12:33N 43°36' E 007°09'6 4.3
2014-Jul-18 11:07N 43°31' E 007°03'0 0.0
2014-Jul-18 09:22N 43°31' E 007°03'0 0.0
2014-Jul-18 07:04N 43°31' E 007°03'0 0.0
2014-Jul-18 03:28N 43°31' E 007°03'0 0.0
2014-Jul-18 02:28N 43°31' E 007°03'0 0.0
2014-Jul-17 23:04N 43°31' E 007°03'0 0.0
2014-Jul-17 22:10N 43°31' E 007°03'0 0.0
2014-Jul-17 20:22N 43°31' E 007°03'0 0.0
2014-Jul-17 19:31N 43°31' E 007°03'0 0.0
2014-Jul-17 15:16N 43°31' E 007°03'0 0.0
2014-Jul-17 14:22N 43°31' E 007°03'0 0.0
2014-Jul-17 13:25N 43°31' E 007°03'0 0.0
2014-Jul-17 12:30N 43°31' E 007°03'1111.1
2014-Jul-17 11:33N 43°36' E 007°16'1211.1
2014-Jul-17 10:30N 43°45' E 007°27'0 0.0
2014-Jul-17 09:25N 43°45' E 007°27'0 0.0
2014-Jul-17 08:30N 43°45' E 007°27'1 0.1
2014-Jul-16 16:29N 43°44' E 007°25'1 0.5
2014-Jul-16 14:23N 43°45' E 007°27'0 0.0
2014-Jul-16 13:32N 43°45' E 007°27'0 0.0
2014-Jul-16 12:32N 43°45' E 007°27'  
Track history (hours):
 
Tides and Currents Weather Stations Pressure Air Temp Water Temp Dewpoint Dewpoint Depression Visibility Wind Speed Wind Dir Waves Ship Positions

Blue Scorpion

Last reported at 2014-Jul-25 13:32 UTC. Time now 2014-Jul-25 13:45 UTC.
Position N 42°58' E 006°24'.

Length 53 m; draft 3.1 m.

Type: Pleasure craft. MMSI: 247064680.

Date/timePositionNaut miles runAvg speedWind from/ knotsBaromVisibWave heightAir tempDewpointWater temp
2014-Jul-25 13:32N 42°58' E 006°24'1615.9
2014-Jul-25 12:33N 43°09' E 006°39'5 4.8
2014-Jul-25 11:31N 43°13' E 006°40'0 0.0
2014-Jul-25 09:31N 43°13' E 006°40'0 0.0
2014-Jul-25 08:07N 43°13' E 006°40'0 0.0
2014-Jul-25 07:31N 43°13' E 006°40'0 0.0
2014-Jul-25 06:25N 43°13' E 006°40'0 0.0
2014-Jul-25 05:19N 43°13' E 006°40'0 0.0
2014-Jul-25 04:31N 43°13' E 006°40'0 0.0
2014-Jul-25 03:28N 43°13' E 006°40'0 0.0
2014-Jul-25 02:16N 43°13' E 006°40'0 0.0
2014-Jul-25 01:25N 43°13' E 006°40'0 0.0
2014-Jul-24 23:28N 43°13' E 006°40'0 0.0
2014-Jul-24 22:31N 43°13' E 006°40'0 0.0
2014-Jul-24 21:31N 43°13' E 006°40'0 0.0
2014-Jul-24 20:31N 43°13' E 006°40'0 0.0
2014-Jul-24 19:31N 43°13' E 006°40'0 0.0
2014-Jul-24 18:28N 43°13' E 006°40'0 0.0
2014-Jul-24 17:31N 43°13' E 006°40'0 0.0
2014-Jul-24 16:31N 43°13' E 006°40'0 0.0
2014-Jul-24 15:31N 43°13' E 006°40'0 0.0
2014-Jul-24 14:31N 43°13' E 006°40'4 4.2
2014-Jul-24 13:33N 43°17' E 006°41'3 2.3
2014-Jul-24 12:27N 43°16' E 006°38'0 0.0
2014-Jul-24 11:33N 43°16' E 006°38'0 0.0
2014-Jul-24 10:30N 43°16' E 006°38'0 0.0
2014-Jul-24 09:30N 43°16' E 006°38'0 0.0
2014-Jul-24 08:33N 43°16' E 006°38'0 0.0
2014-Jul-24 07:33N 43°16' E 006°38'0 0.0
2014-Jul-24 06:30N 43°16' E 006°38'0 0.0
2014-Jul-24 05:33N 43°16' E 006°38'0 0.0
2014-Jul-24 04:30N 43°16' E 006°38'0 0.0
2014-Jul-24 03:33N 43°16' E 006°38'0 0.0
2014-Jul-24 02:30N 43°16' E 006°38'0 0.0
2014-Jul-24 01:33N 43°16' E 006°38'0 0.0
2014-Jul-24 00:33N 43°16' E 006°38'0 0.0
2014-Jul-23 23:30N 43°16' E 006°38'0 0.0
2014-Jul-23 22:30N 43°16' E 006°38'0 0.0
2014-Jul-23 21:30N 43°16' E 006°38'0 0.0
2014-Jul-23 20:33N 43°16' E 006°38'0 0.0
2014-Jul-23 19:30N 43°16' E 006°38'0 0.0
2014-Jul-23 18:33N 43°16' E 006°38'0 0.0
2014-Jul-23 17:32N 43°16' E 006°38'3 3.0
2014-Jul-23 16:33N 43°17' E 006°42'4 4.1
2014-Jul-23 15:32N 43°13' E 006°40'0 0.0
2014-Jul-23 14:32N 43°13' E 006°40'0 0.0
2014-Jul-23 13:29N 43°13' E 006°40'0 0.0
2014-Jul-23 12:32N 43°13' E 006°40'1 1.0
2014-Jul-23 11:33N 43°14' E 006°41'3 3.0
2014-Jul-23 10:29N 43°16' E 006°38'0 0.0
2014-Jul-23 09:32N 43°16' E 006°38'0 0.0
2014-Jul-23 08:32N 43°16' E 006°38'0 0.0
2014-Jul-23 07:32N 43°16' E 006°38'0 0.0
2014-Jul-23 06:31N 43°16' E 006°38'0 0.0
2014-Jul-23 05:31N 43°16' E 006°38'0 0.0
2014-Jul-23 04:25N 43°16' E 006°38'0 0.0
2014-Jul-23 03:31N 43°16' E 006°38'0 0.0
2014-Jul-23 02:16N 43°16' E 006°38'0 0.0
2014-Jul-23 01:31N 43°16' E 006°38'0 0.0
2014-Jul-23 00:31N 43°16' E 006°38'0 0.0
2014-Jul-22 23:31N 43°16' E 006°38'0 0.0
2014-Jul-22 22:31N 43°16' E 006°38'0 0.0
2014-Jul-22 21:31N 43°16' E 006°38'0 0.0
2014-Jul-22 20:28N 43°16' E 006°38'0 0.0
2014-Jul-22 19:31N 43°16' E 006°38'0 0.0
2014-Jul-22 18:25N 43°16' E 006°38'0 0.0
2014-Jul-22 17:31N 43°16' E 006°38'0 0.0
2014-Jul-22 16:31N 43°16' E 006°38'0 0.0
2014-Jul-22 15:31N 43°16' E 006°38'0 0.0
2014-Jul-22 14:31N 43°16' E 006°38'0 0.0
2014-Jul-22 13:31N 43°16' E 006°38'0 0.0
2014-Jul-22 12:31N 43°16' E 006°38'0 0.0
2014-Jul-22 11:31N 43°16' E 006°38'0 0.0
2014-Jul-22 10:31N 43°16' E 006°38'0 0.0
2014-Jul-22 09:28N 43°16' E 006°38'0 0.0
2014-Jul-22 08:31N 43°16' E 006°38'0 0.0
2014-Jul-22 07:31N 43°16' E 006°38'0 0.0
2014-Jul-22 06:31N 43°16' E 006°38'0 0.0
2014-Jul-22 05:25N 43°16' E 006°38'0 0.0
2014-Jul-22 04:31N 43°16' E 006°38'0 0.0
2014-Jul-22 03:31N 43°16' E 006°38'0 0.0
2014-Jul-22 02:31N 43°16' E 006°38'0 0.0
2014-Jul-22 01:25N 43°16' E 006°38'0 0.0
2014-Jul-22 00:31N 43°16' E 006°38'0 0.0
2014-Jul-21 23:31N 43°16' E 006°38'0 0.0
2014-Jul-21 22:31N 43°16' E 006°38'0 0.0
2014-Jul-21 21:31N 43°16' E 006°38'0 0.0
2014-Jul-21 20:31N 43°16' E 006°38'0 0.0
2014-Jul-21 20:13N 43°16' E 006°38'0 0.0
2014-Jul-21 19:31N 43°16' E 006°38'0 0.0
2014-Jul-21 18:22N 43°16' E 006°38'0 0.0
2014-Jul-21 17:30N 43°16' E 006°38'0 0.0
2014-Jul-21 16:18N 43°16' E 006°38'0 0.4
2014-Jul-21 15:33N 43°16' E 006°38'0 0.0
2014-Jul-21 14:31N 43°16' E 006°38'0 0.0
2014-Jul-21 13:31N 43°16' E 006°38'0 0.0
2014-Jul-21 12:31N 43°16' E 006°38'0 0.0
2014-Jul-21 11:31N 43°16' E 006°38'0 0.0
2014-Jul-21 10:22N 43°16' E 006°38'0 0.1
2014-Jul-21 09:31N 43°16' E 006°38'0 0.0
2014-Jul-21 08:28N 43°16' E 006°38'1 1.1
2014-Jul-21 07:33N 43°16' E 006°36'0 0.0
2014-Jul-21 06:18N 43°16' E 006°36'0 0.0
2014-Jul-21 05:33N 43°16' E 006°36'0 0.0
2014-Jul-21 04:33N 43°16' E 006°36'0 0.0
2014-Jul-21 03:17N 43°16' E 006°36'0 0.0
2014-Jul-21 02:29N 43°16' E 006°36'0 0.0
2014-Jul-21 01:32N 43°16' E 006°36'0 0.0
2014-Jul-21 00:26N 43°16' E 006°36'0 0.0
2014-Jul-20 23:23N 43°16' E 006°36'0 0.0
2014-Jul-20 22:23N 43°16' E 006°36'0 0.0
2014-Jul-20 21:32N 43°16' E 006°36'0 0.0
2014-Jul-20 20:32N 43°16' E 006°36'0 0.0
2014-Jul-20 19:32N 43°16' E 006°36'0 0.0
2014-Jul-20 18:32N 43°16' E 006°36'0 0.0
2014-Jul-20 17:32N 43°16' E 006°36'0 0.0
2014-Jul-20 16:32N 43°16' E 006°36'0 0.0
2014-Jul-20 15:29N 43°16' E 006°36'1 0.8
2014-Jul-20 14:22N 43°16' E 006°37'0 0.4
2014-Jul-20 13:33N 43°16' E 006°38'0 0.3
2014-Jul-20 12:32N 43°16' E 006°37'0 0.0
2014-Jul-20 11:23N 43°16' E 006°37'0 0.0
2014-Jul-20 10:29N 43°16' E 006°37'0 0.0
2014-Jul-20 09:29N 43°16' E 006°37'0 0.0
2014-Jul-20 08:29N 43°17' E 006°37'0 0.0
2014-Jul-20 07:23N 43°16' E 006°37'0 0.0
2014-Jul-20 06:29N 43°17' E 006°37'0 0.0
2014-Jul-20 05:26N 43°17' E 006°37'0 0.0
2014-Jul-20 04:29N 43°17' E 006°37'0 0.0
2014-Jul-20 03:29N 43°17' E 006°37'0 0.0
2014-Jul-20 02:29N 43°17' E 006°37'0 0.0
2014-Jul-20 01:32N 43°17' E 006°37'0 0.0
2014-Jul-20 00:29N 43°17' E 006°37'0 0.0
2014-Jul-19 23:26N 43°16' E 006°37'0 0.0
2014-Jul-19 22:32N 43°16' E 006°37'0 0.0
2014-Jul-19 21:29N 43°17' E 006°37'0 0.0
2014-Jul-19 20:29N 43°16' E 006°37'0 0.0
2014-Jul-19 19:29N 43°17' E 006°37'0 0.0
2014-Jul-19 18:29N 43°16' E 006°37'0 0.0
2014-Jul-19 17:33N 43°17' E 006°37'1312.5
2014-Jul-19 16:33N 43°22' E 006°53'1111.4
2014-Jul-19 15:33N 43°31' E 007°03'0 0.1
2014-Jul-19 14:28N 43°31' E 007°03'0 0.0
2014-Jul-19 13:31N 43°31' E 007°03'0 0.0
2014-Jul-19 12:31N 43°31' E 007°03'0 0.0
2014-Jul-19 11:32N 43°31' E 007°03'3 3.4
2014-Jul-19 10:32N 43°33' E 007°07'0 0.0
2014-Jul-19 09:23N 43°33' E 007°07'0 0.0
2014-Jul-19 08:32N 43°33' E 007°07'0 0.0
2014-Jul-19 07:32N 43°33' E 007°07'0 0.0
2014-Jul-19 06:32N 43°33' E 007°07'0 0.0
2014-Jul-19 05:32N 43°33' E 007°07'0 0.0
2014-Jul-19 04:29N 43°33' E 007°07'0 0.0
2014-Jul-19 03:32N 43°33' E 007°07'0 0.0
2014-Jul-19 02:32N 43°33' E 007°07'0 0.0
2014-Jul-19 01:32N 43°33' E 007°07'0 0.0
2014-Jul-19 00:26N 43°33' E 007°07'0 0.0
2014-Jul-18 23:26N 43°33' E 007°07'0 0.0
2014-Jul-18 22:32N 43°33' E 007°07'0 0.0
2014-Jul-18 21:32N 43°33' E 007°07'0 0.0
2014-Jul-18 20:32N 43°33' E 007°07'0 0.0
2014-Jul-18 19:32N 43°33' E 007°07'3 2.7
2014-Jul-18 18:34N 43°35' E 007°10'2 1.8
2014-Jul-18 17:31N 43°35' E 007°07'0 0.0
2014-Jul-18 16:31N 43°35' E 007°07'0 0.0
2014-Jul-18 15:25N 43°35' E 007°07'0 0.0
2014-Jul-18 14:31N 43°35' E 007°07'0 0.0
2014-Jul-18 13:31N 43°35' E 007°07'1 1.0
2014-Jul-18 12:33N 43°36' E 007°09'6 4.3
2014-Jul-18 11:07N 43°31' E 007°03'0 0.0
2014-Jul-18 09:22N 43°31' E 007°03'0 0.0
2014-Jul-18 07:04N 43°31' E 007°03'0 0.0
2014-Jul-18 03:28N 43°31' E 007°03'0 0.0
2014-Jul-18 02:28N 43°31' E 007°03'0 0.0
2014-Jul-17 23:04N 43°31' E 007°03'0 0.0
2014-Jul-17 22:10N 43°31' E 007°03'0 0.0
2014-Jul-17 20:22N 43°31' E 007°03'0 0.0
2014-Jul-17 19:31N 43°31' E 007°03'0 0.0
2014-Jul-17 15:16N 43°31' E 007°03'0 0.0
2014-Jul-17 14:22N 43°31' E 007°03'0 0.0
2014-Jul-17 13:25N 43°31' E 007°03'0 0.0
2014-Jul-17 12:30N 43°31' E 007°03'1111.1
2014-Jul-17 11:33N 43°36' E 007°16'1211.1
2014-Jul-17 10:30N 43°45' E 007°27'0 0.0
2014-Jul-17 09:25N 43°45' E 007°27'0 0.0
2014-Jul-17 08:30N 43°45' E 007°27'1 0.1
2014-Jul-16 16:29N 43°44' E 007°25'1 0.5
2014-Jul-16 14:23N 43°45' E 007°27'0 0.0
2014-Jul-16 13:32N 43°45' E 007°27'0 0.0
2014-Jul-16 12:32N 43°45' E 007°27'  

Dump ship's entire track history